[[{"header":{"parameterUnit":"m.s-1","parameterCategory":1,"la1":30.2991,"la2":30.254,"lo1":-89.0895,"lo2":-89.0444,"dy":0.0017,"dx":0.0017,"nx":28,"ny":28,"refTime":"2023-07-21T09:00:00:Z","depth":0,"parameterNumber":2,"parameterNumberName":"U-component_of_WINDS"},"data":[0,0,0,0,0,0,0,0,0,0,0,0,0,0,0,0,0,0,0,0,0,0,0,0,0,0,0,0,0,0,0,0,0,0,0,0,0,0,0,0,0,0,0,0,0,0,0,0,0,0,0,0,0,0,0,0,0,0,5.4216,5.4218,0,5.4382,5.4384,5.4386,5.4306,5.4302,5.4298,5.4294,5.4468,5.4476,5.4484,0,0,0,0,0,0,0,0,0,0,0,0,0,5.3831,5.3839,5.4216,5.4218,5.422,5.4382,5.4384,5.4386,5.4307,5.4302,5.4297,5.4292,5.4465,5.4475,5.4485,0,0,0,0,0,0,0,0,0,0,0,0,0,5.3998,5.3841,5.4215,5.42,5.42,5.4381,5.4384,5.4387,5.4308,5.4302,5.4295,5.4289,5.4461,5.4474,5.4487,5.4694,0,0,5.4526,5.4532,0,0,0,0,0,0,0,0,5.3989,5.4012,5.42,5.4201,5.4202,5.4317,5.4312,5.449,5.431,5.4267,5.4294,5.4286,5.4423,5.4438,5.4484,5.4702,5.471,5.4527,5.4535,5.4541,5.4544,0,0,0,0,0,0,0,5.3977,5.4005,5.4282,5.4203,5.4204,5.4185,5.4202,5.4345,5.4379,5.427,5.4265,5.4286,5.4422,5.4472,5.4487,5.4712,5.4527,5.4538,5.4546,5.4551,5.5107,5.5114,0,0,0,0,0,0,5.3966,5.3996,5.4276,5.4287,5.4077,5.4197,5.4216,5.4286,5.4377,5.4385,5.4291,5.4281,5.4453,5.4472,5.4493,5.474,5.454,5.4553,5.456,5.51,5.5108,5.5116,0,0,0,0,0,0,5.3958,5.3992,5.427,5.414,5.4174,5.421,5.4291,5.4293,5.4342,5.4393,5.4398,5.4335,5.4448,5.4475,5.4644,5.4745,5.4558,5.457,5.5092,5.5103,5.5112,5.5237,0,0,0,0,0,0,5.3947,5.3989,5.4068,5.4142,5.4181,5.4417,5.4297,5.4301,5.4364,5.4353,5.4436,5.4443,5.4445,5.4625,5.4657,5.4759,5.458,5.5083,5.5096,5.5109,5.5224,5.525,5.5273,0,0,0,0,0,5.3934,5.4098,5.4073,5.4107,5.428,5.4423,5.4446,5.4444,5.4373,5.4452,5.4484,5.4441,5.4729,5.4643,5.4678,5.4786,5.5076,5.5093,5.5108,5.5213,5.5245,5.5272,0,0,0,0,0,0,5.4037,5.4107,5.408,5.4273,5.4342,5.441,5.451,5.4479,5.4571,5.4557,5.4552,5.4571,5.4746,5.4783,5.4686,5.4991,5.4892,5.4915,5.496,5.4991,5.5015,5.5002,5.4591,0,0,0,0,0,5.4081,5.4191,5.4247,5.4412,5.4448,5.4473,5.4536,5.4528,5.4601,5.463,5.4675,5.4747,5.4854,5.4925,5.5026,5.5229,5.5245,5.5321,5.5345,5.5365,5.5385,5.5494,5.5527,5.5168,5.5168,5.5167,0,0,5.4176,5.4228,5.4298,5.4434,5.4487,5.4601,5.4499,5.4624,5.4709,5.465,5.4811,5.4846,5.4927,5.5113,5.5198,5.515,5.5488,5.5385,5.5401,5.541,5.5513,5.5547,5.5577,5.5179,5.5177,5.5175,0,0,5.4405,5.4456,5.4598,5.4652,5.4733,5.4749,5.4783,5.4855,5.4876,5.5037,5.4995,5.5096,5.528,5.5339,5.5393,5.5643,5.5606,5.5676,5.5804,5.591,5.5938,5.5963,5.6051,5.6083,5.5697,5.5697,5.5697,0,5.4512,5.4681,5.4675,5.4803,5.4864,5.4814,5.4957,5.5011,5.5122,5.5165,5.511,5.5339,5.539,5.5588,5.5649,5.5695,5.5733,5.5667,5.5935,5.596,5.5983,5.6066,5.61,5.5705,5.5704,5.5703,5.5702,0,5.4808,5.4926,5.5031,5.5136,5.5209,5.5345,5.5359,5.5434,5.542,5.5441,5.5605,5.5665,5.5776,5.5823,5.5812,5.602,5.5987,5.5934,5.5834,5.6025,5.6103,5.6135,5.5716,5.5713,5.5711,5.5709,0,0,5.5107,5.5206,5.5245,5.5291,5.5377,5.5468,5.5601,5.5708,5.5771,5.585,5.596,5.6117,5.6067,5.6128,5.6123,5.6216,5.6408,5.615,5.6152,5.6195,5.6639,5.6677,5.6715,5.6384,5.639,5.6395,5.6631,0,5.5341,5.5571,5.5569,5.5783,5.5891,5.5845,5.596,5.6025,5.6049,5.6144,5.617,5.6281,5.6208,5.6244,5.6334,5.6365,5.6497,5.6349,5.6486,5.6491,5.6466,5.6756,5.6798,5.7018,5.6662,5.6667,5.6671,0,5.5645,5.573,5.5954,5.6022,5.6067,5.6171,5.6268,5.636,5.6433,5.6443,5.6511,5.6491,5.6625,5.6523,5.6708,5.6607,5.6663,5.6688,5.6696,5.6708,5.6592,5.6774,5.7089,5.7121,5.672,5.6716,5.6712,0,5.5838,5.601,5.6165,5.6207,5.629,5.6364,5.6402,5.6468,5.6532,5.6618,5.6659,5.676,5.6815,5.6894,5.6901,5.6826,5.7088,5.6986,5.7099,5.7099,5.7156,5.7152,5.7482,5.7195,5.7194,5.7194,5.7193,0,5.6098,5.6237,5.6253,5.6349,5.6502,5.6498,5.6651,5.6682,5.6741,5.6842,5.681,5.6905,5.691,5.7008,5.7015,5.7167,5.7193,5.7204,5.7204,5.7206,5.7205,5.7242,5.7227,5.7203,5.7201,5.7199,5.7197,0,5.634,5.6356,5.6522,5.6587,5.6606,5.6717,5.6772,5.6863,5.6882,5.7011,5.7041,5.7072,5.7186,5.7201,5.7335,5.7339,5.7521,5.7506,5.7496,5.7493,5.7605,5.7594,5.797,5.8018,5.7701,5.7704,5.7707,0,5.6505,5.661,5.6685,5.6749,5.6791,5.6896,5.696,5.6961,5.7029,5.7119,5.7199,5.7309,5.7397,5.7581,5.7616,5.7718,5.7704,5.7828,5.7719,5.7717,5.7703,5.7696,5.7706,5.7849,5.7853,5.7856,5.7858,0,5.6794,5.6796,5.689,5.6987,5.7064,5.7141,5.7213,5.7268,5.7277,5.7356,5.7471,5.7539,5.7674,5.7784,5.7884,5.7923,5.7893,5.7892,5.7923,5.7926,5.7915,5.792,5.7552,5.7883,5.7881,5.7879,5.7878,5.7876,5.7001,5.7091,5.7158,5.7263,5.7316,5.7384,5.7472,5.7502,5.7597,5.7706,5.7701,5.7827,5.7896,5.8026,5.8073,5.8172,5.8131,5.8177,5.8188,5.8199,5.8209,5.79,5.8191,5.819,5.8189,5.8189,5.8188,0,5.7287,5.7327,5.7424,5.7524,5.7607,5.7569,5.7647,5.7718,5.7829,5.7895,5.7982,5.8113,5.8218,5.8261,5.8365,5.8435,5.8424,5.8462,5.8456,5.8466,5.8241,5.8203,5.847,5.847,5.847,5.847,5.847,5.8469,5.7446,5.7596,5.7606,5.7782,5.7821,5.7943,5.799,5.8052,5.8105,5.8252,5.8339,5.8365,5.8422,5.8529,5.8624,5.8634,5.8672,5.8717,5.8721,5.851,5.8482,5.8454,5.8418,5.8726,5.8727,5.8937,5.8939,5.894]},{"header":{"parameterUnit":"m.s-1","parameterCategory":1,"la1":30.2991,"la2":30.254,"lo1":-89.0895,"lo2":-89.0444,"dy":0.0017,"dx":0.0017,"nx":28,"ny":28,"refTime":"2023-07-21T09:00:00:Z","depth":0,"parameterNumber":3,"parameterNumberName":"V-component_of_WINDS"},"data":[0,0,0,0,0,0,0,0,0,0,0,0,0,0,0,0,0,0,0,0,0,0,0,0,0,0,0,0,0,0,0,0,0,0,0,0,0,0,0,0,0,0,0,0,0,0,0,0,0,0,0,0,0,0,0,0,0,0,1.5943,1.5944,0,1.6012,1.6013,1.6014,1.6009,1.6008,1.6007,1.6006,1.6075,1.6078,1.6081,0,0,0,0,0,0,0,0,0,0,0,0,0,1.5805,1.5808,1.5943,1.5944,1.5945,1.6012,1.6013,1.6014,1.6009,1.6008,1.6006,1.6005,1.6074,1.6078,1.6081,0,0,0,0,0,0,0,0,0,0,0,0,0,1.5869,1.5809,1.5943,1.5951,1.5952,1.6012,1.6013,1.6014,1.6009,1.6008,1.6006,1.6005,1.6073,1.6077,1.6082,1.6138,0,0,1.6094,1.6096,0,0,0,0,0,0,0,0,1.5865,1.5874,1.5949,1.595,1.5952,1.6,1.599,1.6056,1.601,1.5987,1.6006,1.6004,1.6052,1.6057,1.6074,1.6141,1.6144,1.6095,1.6097,1.6099,1.61,0,0,0,0,0,0,0,1.5861,1.5871,1.597,1.595,1.5952,1.595,1.5957,1.6002,1.6027,1.5989,1.5989,1.5997,1.6052,1.607,1.6075,1.6145,1.6095,1.6098,1.6101,1.6103,1.6262,1.6264,0,0,0,0,0,0,1.5855,1.5867,1.5968,1.5972,1.5904,1.5954,1.5962,1.5986,1.6027,1.6031,1.5999,1.5997,1.6063,1.607,1.6078,1.6146,1.6099,1.6103,1.6106,1.626,1.6262,1.6264,0,0,0,0,0,0,1.5852,1.5864,1.5965,1.592,1.5933,1.5958,1.5985,1.5988,1.6006,1.6034,1.6038,1.6012,1.6062,1.6072,1.6123,1.6149,1.6105,1.6109,1.6258,1.6261,1.6263,1.6284,0,0,0,0,0,0,1.5848,1.5863,1.5885,1.592,1.5935,1.601,1.5987,1.5991,1.6013,1.6012,1.6048,1.6052,1.6062,1.6117,1.6127,1.6154,1.6112,1.6256,1.6259,1.6262,1.6281,1.6287,1.6292,0,0,0,0,0,1.5843,1.5889,1.5887,1.5899,1.5964,1.6012,1.602,1.6031,1.6015,1.6038,1.6055,1.6051,1.6144,1.6122,1.6134,1.6162,1.6254,1.6258,1.6262,1.6279,1.6286,1.6292,0,0,0,0,0,0,1.5856,1.5893,1.5892,1.595,1.5978,1.6011,1.604,1.6038,1.6071,1.6068,1.6079,1.6087,1.6139,1.6155,1.613,1.6218,1.6197,1.6203,1.6206,1.6213,1.6218,1.6213,1.6116,0,0,0,0,0,1.5865,1.5902,1.5932,1.5981,1.5995,1.6015,1.6036,1.6042,1.6071,1.6083,1.6104,1.6132,1.6168,1.6191,1.6225,1.6283,1.6291,1.6308,1.6313,1.6318,1.6323,1.6354,1.6362,1.6277,1.6277,1.6277,0,0,1.5885,1.591,1.5933,1.5984,1.6006,1.6043,1.6025,1.6065,1.6092,1.6089,1.6139,1.6155,1.6187,1.6242,1.6267,1.6257,1.6348,1.6323,1.6326,1.6329,1.6359,1.6367,1.6374,1.6279,1.6279,1.6278,0,0,1.5941,1.5964,1.6006,1.6029,1.6063,1.6075,1.6085,1.6119,1.613,1.618,1.6178,1.621,1.6271,1.6294,1.6314,1.6376,1.6373,1.6387,1.6415,1.6445,1.6452,1.6458,1.648,1.6488,1.6392,1.6392,1.6392,0,1.5962,1.6018,1.6028,1.6068,1.6091,1.6089,1.6132,1.6153,1.6196,1.6211,1.6199,1.6275,1.6297,1.6357,1.6372,1.6388,1.6399,1.6383,1.645,1.6457,1.6462,1.6484,1.6492,1.6394,1.6393,1.6393,1.6393,0,1.6041,1.608,1.611,1.6152,1.6178,1.6219,1.6235,1.6259,1.6262,1.6276,1.6326,1.6351,1.639,1.6405,1.6408,1.6465,1.6457,1.6448,1.6427,1.6472,1.6492,1.65,1.6396,1.6395,1.6395,1.6394,0,0,1.6108,1.6154,1.6165,1.6184,1.6221,1.6251,1.6291,1.6329,1.635,1.6379,1.6413,1.6464,1.6455,1.6478,1.6483,1.651,1.6557,1.6497,1.6498,1.6507,1.662,1.6627,1.6637,1.6555,1.6556,1.6558,1.6617,0,1.6167,1.624,1.625,1.6314,1.6349,1.6348,1.6383,1.6409,1.6422,1.6454,1.6468,1.6504,1.649,1.6503,1.6529,1.6546,1.658,1.6541,1.6586,1.6588,1.6579,1.6647,1.6655,1.671,1.6625,1.6627,1.6628,0,1.6247,1.6278,1.6346,1.6377,1.6392,1.6424,1.6459,1.649,1.6519,1.6526,1.6551,1.6553,1.6594,1.657,1.6627,1.66,1.6619,1.6629,1.6632,1.6637,1.6611,1.6654,1.6728,1.6737,1.664,1.6639,1.6638,0,1.6288,1.6348,1.6396,1.6412,1.6449,1.6472,1.6488,1.6515,1.6537,1.6568,1.6582,1.6617,1.6636,1.6663,1.6673,1.6656,1.6729,1.6707,1.6736,1.6736,1.6752,1.6751,1.6831,1.6764,1.6764,1.6763,1.6763,0,1.6354,1.6395,1.6415,1.6445,1.6491,1.6501,1.6546,1.6561,1.6585,1.6617,1.6618,1.6647,1.666,1.6691,1.67,1.6745,1.6754,1.6761,1.6762,1.6761,1.676,1.6774,1.677,1.6766,1.6765,1.6765,1.6764,0,1.6409,1.6424,1.6476,1.6507,1.6515,1.6548,1.6574,1.6602,1.6615,1.6655,1.6665,1.6685,1.6722,1.6735,1.678,1.6786,1.6838,1.6836,1.6828,1.6829,1.6857,1.6855,1.6949,1.6961,1.6886,1.6887,1.6887,0,1.645,1.6482,1.6516,1.6537,1.6555,1.659,1.6612,1.6623,1.6646,1.668,1.6704,1.6741,1.6771,1.683,1.6848,1.6882,1.6881,1.6912,1.6886,1.6883,1.6882,1.688,1.6883,1.6917,1.6918,1.6918,1.6919,0,1.6521,1.6527,1.6559,1.6594,1.6621,1.6649,1.6676,1.6694,1.6708,1.6734,1.6772,1.6795,1.6841,1.6877,1.6912,1.6928,1.6926,1.6926,1.6935,1.6934,1.6928,1.6931,1.6841,1.6924,1.6924,1.6923,1.6923,1.6923,1.657,1.6598,1.6626,1.6662,1.6684,1.6709,1.6737,1.6753,1.6785,1.6823,1.6827,1.6867,1.6894,1.694,1.6958,1.6989,1.6981,1.6993,1.6997,1.7,1.7002,1.6922,1.6996,1.6995,1.6995,1.6995,1.6995,0,1.6641,1.6659,1.6692,1.673,1.6758,1.6754,1.6783,1.6807,1.6843,1.6868,1.6897,1.694,1.6975,1.6995,1.703,1.7051,1.7051,1.706,1.7058,1.7062,1.7007,1.6996,1.7059,1.7059,1.7059,1.7059,1.7059,1.7059,1.6682,1.6728,1.6737,1.6794,1.6812,1.6852,1.6869,1.6892,1.6912,1.696,1.6989,1.7002,1.7025,1.7061,1.7092,1.7097,1.711,1.712,1.7124,1.7073,1.7066,1.706,1.7049,1.7122,1.7123,1.7176,1.7176,1.7177]}]]